When you browse on this site, cookies collect data to enhance your experience and personalize the content and advertising you see.
Visit our Privacy Policy to learn more. By continuing to use the site, you agree to this use of cookies and data.
  • In Hungary
  • List of Countries
  • For 7 days
  • Water Temperature
  • Satellite Maps
  • Weather Map
  • News
  • Weather Widgets
  • user-avatar
    Login

    Hourly Weather Qala i Naw

    Today, 26 April, Friday

    Time Temperature Precipitation Wind Pressure Humidity
    00:00 +8°C° 0 mm 1 mps 684 mmHg 69%
    01:00 +8°C° 0 mm 1 mps 684 mmHg 70%
    02:00 +7°C° 0 mm 1 mps 684 mmHg 70%
    03:00 +7°C° 0 mm 1 mps 684 mmHg 71%
    04:00 +6°C° 0 mm 1 mps 684 mmHg 70%
    05:00 +7°C° 0 mm 1 mps 684 mmHg 67%
    06:00 +7°C° 0 mm 1 mps 684 mmHg 63%
    07:00 +8°C° 0 mm 1 mps 684 mmHg 60%
    08:00 +8°C° 0 mm 2 mps 684 mmHg 56%
    09:00 +10°C° 0 mm 2 mps 684 mmHg 52%
    10:00 +11°C° 0 mm 3 mps 684 mmHg 49%
    11:00 +12°C° 0 mm 3 mps 684 mmHg 47%
    12:00 +13°C° 0 mm 4 mps 684 mmHg 44%
    13:00 +14°C° 0 mm 4 mps 684 mmHg 42%
    14:00 +14°C° 0 mm 4 mps 684 mmHg 42%
    15:00 +15°C° 0 mm 5 mps 684 mmHg 41%
    16:00 +15°C° 0 mm 5 mps 684 mmHg 41%
    17:00 +14°C° 0 mm 4 mps 684 mmHg 45%
    18:00 +13°C° 0 mm 3 mps 684 mmHg 48%
    19:00 +13°C° 0 mm 2 mps 684 mmHg 52%
    20:00 +12°C° 0 mm 2 mps 684 mmHg 54%
    21:00 +12°C° 0 mm 2 mps 684 mmHg 57%
    22:00 +11°C° 0 mm 1 mps 684 mmHg 59%
    23:00 +11°C° 0 mm 1 mps 684 mmHg 60%

    Tomorrow, 27 April, Saturday

    Time Temperature Precipitation Wind Pressure Humidity
    00:00 +10°C° 0 mm 1 mps 684 mmHg 62%
    01:00 +10°C° 0 mm 1 mps 683 mmHg 63%
    02:00 +9°C° 0 mm 1 mps 683 mmHg 64%
    03:00 +9°C° 0 mm 1 mps 683 mmHg 65%
    04:00 +9°C° 0 mm 1 mps 683 mmHg 66%
    05:00 +9°C° 0 mm 1 mps 683 mmHg 62%
    06:00 +10°C° 0 mm 1 mps 684 mmHg 57%
    07:00 +11°C° 0 mm 1 mps 684 mmHg 53%
    08:00 +12°C° 0 mm 2 mps 684 mmHg 50%
    09:00 +13°C° 0 mm 2 mps 684 mmHg 47%
    10:00 +14°C° 0 mm 3 mps 684 mmHg 44%
    11:00 +16°C° 0 mm 3 mps 684 mmHg 42%
    12:00 +17°C° 0 mm 4 mps 684 mmHg 40%
    13:00 +18°C° 0 mm 4 mps 684 mmHg 38%
    14:00 +18°C° 0 mm 4 mps 684 mmHg 38%
    15:00 +17°C° 0 mm 5 mps 684 mmHg 38%
    16:00 +17°C° 0 mm 5 mps 683 mmHg 38%
    17:00 +17°C° 0 mm 4 mps 683 mmHg 42%
    18:00 +16°C° 0 mm 3 mps 684 mmHg 45%
    19:00 +15°C° 0 mm 2 mps 684 mmHg 49%
    20:00 +14°C° 0 mm 2 mps 684 mmHg 52%
    21:00 +14°C° 0 mm 1 mps 684 mmHg 55%
    22:00 +13°C° 0 mm 1 mps 684 mmHg 57%
    23:00 +13°C° 0 mm 1 mps 684 mmHg 58%

    Day after tomorrow, 28 April, Sunday

    Time Temperature Precipitation Wind Pressure Humidity
    00:00 +12°C° 0 mm 1 mps 683 mmHg 59%
    01:00 +12°C° 0 mm 1 mps 683 mmHg 60%
    02:00 +10°C° 0 mm 0 mps 683 mmHg 61%
    03:00 +10°C° 0 mm 0 mps 683 mmHg 62%
    04:00 +9°C° 0 mm 0 mps 682 mmHg 63%
    05:00 +10°C° 0 mm 0 mps 683 mmHg 58%
    06:00 +11°C° 0 mm 0 mps 683 mmHg 53%
    07:00 +12°C° 0 mm 0 mps 683 mmHg 48%
    08:00 +15°C° 0 mm 1 mps 683 mmHg 45%
    09:00 +16°C° 0 mm 2 mps 683 mmHg 42%
    10:00 +18°C° 0 mm 2 mps 683 mmHg 39%
    11:00 +19°C° 0 mm 3 mps 683 mmHg 37%
    12:00 +20°C° 0 mm 3 mps 683 mmHg 35%
    13:00 +21°C° 0 mm 4 mps 683 mmHg 33%
    14:00 +21°C° 0 mm 4 mps 682 mmHg 33%
    15:00 +22°C° 0 mm 4 mps 682 mmHg 33%
    16:00 +22°C° 0 mm 4 mps 681 mmHg 33%
    17:00 +20°C° 0 mm 3 mps 681 mmHg 37%
    18:00 +19°C° 0 mm 2 mps 681 mmHg 42%
    19:00 +19°C° 0 mm 1 mps 681 mmHg 46%
    20:00 +18°C° 0 mm 1 mps 681 mmHg 48%
    21:00 +16°C° 0 mm 0 mps 680 mmHg 50%
    22:00 +16°C° 0 mm 0 mps 680 mmHg 52%
    23:00 +16°C° 0 mm 0 mps 680 mmHg 51%

    29 April, Monday

    Time Temperature Precipitation Wind Pressure Humidity
    00:00 +16°C° 0 mm 1 mps 680 mmHg 50%
    01:00 +16°C° 0 mm 1 mps 680 mmHg 49%
    02:00 +16°C° 0 mm 1 mps 680 mmHg 50%
    03:00 +16°C° 0 mm 1 mps 679 mmHg 52%
    04:00 +15°C° 0 mm 1 mps 679 mmHg 53%
    05:00 +15°C° 0.1 mm 0 mps 680 mmHg 52%
    06:00 +15°C° 0.1 mm 0 mps 680 mmHg 50%
    07:00 +16°C° 0.1 mm 0 mps 680 mmHg 49%
    08:00 +19°C° 0 mm 1 mps 681 mmHg 46%
    09:00 +19°C° 0 mm 1 mps 681 mmHg 44%
    10:00 +19°C° 0 mm 2 mps 681 mmHg 41%
    11:00 +20°C° 0 mm 2 mps 681 mmHg 39%
    12:00 +21°C° 0 mm 3 mps 681 mmHg 37%
    13:00 +23°C° 0 mm 4 mps 681 mmHg 34%
    14:00 +22°C° 0.1 mm 4 mps 680 mmHg 36%
    15:00 +22°C° 0.1 mm 4 mps 680 mmHg 37%
    16:00 +22°C° 0.1 mm 4 mps 680 mmHg 39%
    17:00 +21°C° 0 mm 3 mps 680 mmHg 43%
    18:00 +20°C° 0 mm 2 mps 680 mmHg 47%
    19:00 +20°C° 0 mm 1 mps 680 mmHg 50%
    20:00 +19°C° 0 mm 1 mps 681 mmHg 52%
    21:00 +18°C° 0 mm 1 mps 681 mmHg 53%
    22:00 +18°C° 0 mm 1 mps 681 mmHg 55%
    23:00 +16°C° 0 mm 1 mps 681 mmHg 55%

    30 April, Tuesday

    Time Temperature Precipitation Wind Pressure Humidity
    00:00 +16°C° 0 mm 1 mps 681 mmHg 55%
    01:00 +16°C° 0 mm 1 mps 681 mmHg 55%
    02:00 +15°C° 0 mm 2 mps 681 mmHg 54%
    03:00 +15°C° 0 mm 2 mps 681 mmHg 53%
    04:00 +14°C° 0 mm 2 mps 681 mmHg 52%
    05:00 +16°C° 0 mm 2 mps 682 mmHg 47%
    06:00 +17°C° 0 mm 2 mps 682 mmHg 42%
    07:00 +18°C° 0 mm 2 mps 683 mmHg 38%
    08:00 +19°C° 0 mm 2 mps 683 mmHg 33%
    09:00 +21°C° 0 mm 2 mps 683 mmHg 29%
    10:00 +23°C° 0 mm 2 mps 683 mmHg 25%
    11:00 +24°C° 0 mm 2 mps 683 mmHg 24%
    12:00 +24°C° 0 mm 2 mps 682 mmHg 22%
    13:00 +25°C° 0 mm 2 mps 682 mmHg 21%
    14:00 +25°C° 0 mm 3 mps 682 mmHg 21%
    15:00 +25°C° 0 mm 3 mps 682 mmHg 21%
    16:00 +25°C° 0 mm 4 mps 682 mmHg 21%
    17:00 +24°C° 0 mm 3 mps 681 mmHg 26%
    18:00 +21°C° 0 mm 2 mps 681 mmHg 31%
    19:00 +21°C° 0 mm 1 mps 681 mmHg 35%
    20:00 +20°C° 0 mm 1 mps 681 mmHg 36%
    21:00 +20°C° 0 mm 1 mps 681 mmHg 37%
    22:00 +19°C° 0 mm 1 mps 681 mmHg 38%
    23:00 +18°C° 0 mm 1 mps 681 mmHg 38%

    1 May, Wednesday

    Time Temperature Precipitation Wind Pressure Humidity
    00:00 +18°C° 0 mm 1 mps 680 mmHg 38%
    01:00 +16°C° 0 mm 1 mps 680 mmHg 37%
    02:00 +16°C° 0 mm 1 mps 680 mmHg 37%
    03:00 +16°C° 0 mm 1 mps 680 mmHg 36%
    04:00 +15°C° 0 mm 2 mps 680 mmHg 35%
    05:00 +17°C° 0 mm 2 mps 680 mmHg 32%
    06:00 +18°C° 0 mm 2 mps 681 mmHg 29%
    07:00 +19°C° 0 mm 2 mps 681 mmHg 26%
    08:00 +21°C° 0 mm 1 mps 681 mmHg 25%
    09:00 +23°C° 0 mm 1 mps 682 mmHg 23%
    10:00 +24°C° 0 mm 1 mps 682 mmHg 21%
    11:00 +25°C° 0 mm 2 mps 682 mmHg 21%
    12:00 +25°C° 0 mm 3 mps 681 mmHg 21%
    13:00 +26°C° 0 mm 3 mps 681 mmHg 20%
    14:00 +26°C° 0 mm 4 mps 681 mmHg 21%
    15:00 +26°C° 0 mm 5 mps 681 mmHg 21%
    16:00 +26°C° 0 mm 5 mps 681 mmHg 21%
    17:00 +25°C° 0 mm 4 mps 681 mmHg 25%
    18:00 +22°C° 0 mm 3 mps 681 mmHg 29%
    19:00 +21°C° 0 mm 2 mps 681 mmHg 33%
    20:00 +20°C° 0 mm 2 mps 681 mmHg 35%
    21:00 +20°C° 0 mm 1 mps 681 mmHg 38%
    22:00 +20°C° 0 mm 1 mps 681 mmHg 41%
    23:00 +19°C° 0 mm 1 mps 681 mmHg 40%
    Show more